Time,TemperatureF,DewpointF,PressureIn,WindDirection,WindDirectionDegrees,WindSpeedMPH,WindSpeedGustMPH,Humidity,HourlyPrecipIn,Conditions,Clouds,dailyrainin,SoftwareType,DateUTC
2013-02-17 00:00:00,32.0,32.0,30.02,WNW,300,19.6,19.6,100,0.00,SCT,,0.00,WeatherDisplay:10.37,2013-02-17 05:00:00,
2013-02-17 00:05:00,32.0,32.0,30.02,WNW,300,10.4,10.4,100,0.00,SCT,,0.00,WeatherDisplay:10.37,2013-02-17 05:05:00,
2013-02-17 00:10:00,32.0,32.0,30.02,WNW,300,10.4,10.4,100,0.00,SCT,,0.00,WeatherDisplay:10.37,2013-02-17 05:10:00,
2013-02-17 00:15:00,32.0,32.0,30.02,WNW,300,10.4,10.4,100,0.00,SCT,,0.00,WeatherDisplay:10.37,2013-02-17 05:15:00,
2013-02-17 00:20:00,32.0,32.0,30.02,WNW,300,10.4,10.4,100,0.00,SCT,,0.00,WeatherDisplay:10.37,2013-02-17 05:20:00,
2013-02-17 00:25:00,32.0,32.0,30.02,WNW,300,10.4,10.4,100,0.00,SCT,,0.00,WeatherDisplay:10.37,2013-02-17 05:25:00,
2013-02-17 00:30:00,32.0,32.0,30.02,WNW,300,10.4,10.4,100,0.00,SCT,,0.00,WeatherDisplay:10.37,2013-02-17 05:30:00,
2013-02-17 00:35:00,32.0,32.0,30.02,WNW,300,10.4,10.4,100,0.00,SCT,,0.00,WeatherDisplay:10.37,2013-02-17 05:35:00,
2013-02-17 00:40:00,32.0,32.0,30.03,West,270,19.6,19.6,100,0.00,BKN,,0.00,WeatherDisplay:10.37,2013-02-17 05:40:00,
2013-02-17 00:45:00,32.0,32.0,30.03,West,270,19.6,19.6,100,0.00,BKN,,0.00,WeatherDisplay:10.37,2013-02-17 05:45:00,
2013-02-17 00:50:00,32.0,32.0,30.03,West,270,19.6,19.6,100,0.00,BKN,,0.00,WeatherDisplay:10.37,2013-02-17 05:50:00,
2013-02-17 00:55:00,32.0,32.0,30.03,West,270,19.6,19.6,100,0.00,BKN,,0.00,WeatherDisplay:10.37,2013-02-17 05:55:00,
2013-02-17 01:00:00,32.0,32.0,30.03,West,270,19.6,19.6,100,0.00,BKN,,0.00,WeatherDisplay:10.37,2013-02-17 06:00:00,
2013-02-17 01:05:00,32.0,32.0,30.03,West,270,19.6,19.6,100,0.00,BKN,,0.00,WeatherDisplay:10.37,2013-02-17 06:05:00,
2013-02-17 01:10:00,32.0,32.0,30.03,West,270,19.6,19.6,100,0.00,BKN,,0.00,WeatherDisplay:10.37,2013-02-17 06:10:00,
2013-02-17 01:15:00,32.0,32.0,30.03,West,270,19.6,19.6,100,0.00,BKN,,0.00,WeatherDisplay:10.37,2013-02-17 06:15:00,
2013-02-17 01:20:00,32.0,32.0,30.03,WNW,290,19.6,19.6,100,0.00,SCT,,0.00,WeatherDisplay:10.37,2013-02-17 06:20:00,
2013-02-17 01:25:00,32.0,32.0,30.03,WNW,290,9.2,9.2,100,0.00,SCT,,0.00,WeatherDisplay:10.37,2013-02-17 06:25:00,
2013-02-17 01:30:00,32.0,32.0,30.03,WNW,290,9.2,9.2,100,0.00,SCT,,0.00,WeatherDisplay:10.37,2013-02-17 06:30:00,
2013-02-17 01:35:00,32.0,32.0,30.03,WNW,290,9.2,9.2,100,0.00,SCT,,0.00,WeatherDisplay:10.37,2013-02-17 06:35:00,
2013-02-17 01:40:00,32.0,32.0,30.04,West,270,9.2,9.2,100,0.00,CLR,,0.00,WeatherDisplay:10.37,2013-02-17 06:40:00,
2013-02-17 01:45:00,32.0,32.0,30.04,West,270,9.2,9.2,100,0.00,CLR,,0.00,WeatherDisplay:10.37,2013-02-17 06:45:00,
2013-02-17 01:50:00,32.0,32.0,30.04,West,270,9.2,9.2,100,0.00,CLR,,0.00,WeatherDisplay:10.37,2013-02-17 06:50:00,
2013-02-17 01:55:00,32.0,32.0,30.04,West,270,9.2,9.2,100,0.00,CLR,,0.00,WeatherDisplay:10.37,2013-02-17 06:55:00,
2013-02-17 02:00:00,32.0,32.0,30.04,West,270,9.2,9.2,100,0.00,CLR,,0.00,WeatherDisplay:10.37,2013-02-17 07:00:00,
2013-02-17 02:05:00,32.0,32.0,30.04,West,270,9.2,9.2,100,0.00,CLR,,0.00,WeatherDisplay:10.37,2013-02-17 07:05:00,
2013-02-17 02:10:00,32.0,32.0,30.04,West,270,9.2,9.2,100,0.00,CLR,,0.00,WeatherDisplay:10.37,2013-02-17 07:10:00,
2013-02-17 02:15:00,32.0,32.0,30.04,West,270,9.2,9.2,100,0.00,CLR,,0.00,WeatherDisplay:10.37,2013-02-17 07:15:00,
2013-02-17 02:20:00,32.0,32.0,30.04,West,270,9.2,9.2,100,0.00,CLR,,0.00,WeatherDisplay:10.37,2013-02-17 07:20:00,
2013-02-17 02:25:00,32.0,32.0,30.04,West,270,8.1,8.1,100,0.00,CLR,,0.00,WeatherDisplay:10.37,2013-02-17 07:25:00,
2013-02-17 02:30:00,32.0,32.0,30.05,West,280,19.6,19.6,100,0.00,CLR,,0.00,WeatherDisplay:10.37,2013-02-17 07:30:00,
2013-02-17 02:35:00,32.0,32.0,30.05,West,280,19.6,19.6,100,0.00,CLR,,0.00,WeatherDisplay:10.37,2013-02-17 07:35:00,
2013-02-17 02:40:00,32.0,32.0,30.05,West,280,19.6,19.6,100,0.00,CLR,,0.00,WeatherDisplay:10.37,2013-02-17 07:40:00,
2013-02-17 02:45:00,32.0,32.0,30.05,West,280,18.4,18.4,100,0.00,CLR,,0.00,WeatherDisplay:10.37,2013-02-17 07:45:00,
2013-02-17 02:50:00,32.0,32.0,30.05,West,280,18.4,18.4,100,0.00,CLR,,0.00,WeatherDisplay:10.37,2013-02-17 07:50:00,
2013-02-17 02:55:00,32.0,32.0,30.05,West,280,18.4,18.4,100,0.00,CLR,,0.00,WeatherDisplay:10.37,2013-02-17 07:55:00,
2013-02-17 03:00:00,32.0,32.0,30.05,West,280,18.4,18.4,100,0.00,CLR,,0.00,WeatherDisplay:10.37,2013-02-17 08:00:00,
2013-02-17 03:05:00,32.0,32.0,30.05,West,280,18.4,18.4,100,0.00,CLR,,0.00,WeatherDisplay:10.37,2013-02-17 08:05:00,
2013-02-17 03:10:00,32.0,29.9,30.05,WNW,290,18.4,18.4,92,0.00,CLR,,0.00,WeatherDisplay:10.37,2013-02-17 08:10:00,
2013-02-17 03:15:00,32.0,29.9,30.05,WNW,290,8.1,8.1,92,0.00,CLR,,0.00,WeatherDisplay:10.37,2013-02-17 08:15:00,
2013-02-17 03:20:00,32.0,29.9,30.05,WNW,290,8.1,8.1,92,0.00,CLR,,0.00,WeatherDisplay:10.37,2013-02-17 08:20:00,
2013-02-17 03:25:00,32.0,29.9,30.05,WNW,290,8.1,8.1,92,0.00,CLR,,0.00,WeatherDisplay:10.37,2013-02-17 08:25:00,
2013-02-17 03:30:00,32.0,29.9,30.06,West,280,9.2,9.2,92,0.00,CLR,,0.00,WeatherDisplay:10.37,2013-02-17 08:30:00,
2013-02-17 03:35:00,32.0,29.9,30.06,West,280,9.2,9.2,92,0.00,CLR,,0.00,WeatherDisplay:10.37,2013-02-17 08:35:00,
2013-02-17 03:40:00,32.0,28.3,30.06,WNW,290,9.2,9.2,86,0.00,CLR,,0.00,WeatherDisplay:10.37,2013-02-17 08:40:00,
2013-02-17 03:45:00,32.0,28.3,30.06,WNW,290,6.9,6.9,86,0.00,CLR,,0.00,WeatherDisplay:10.37,2013-02-17 08:45:00,
2013-02-17 03:50:00,32.0,28.3,30.06,WNW,290,6.9,6.9,86,0.00,CLR,,0.00,WeatherDisplay:10.37,2013-02-17 08:50:00,
2013-02-17 03:55:00,32.0,28.3,30.06,WNW,290,6.9,6.9,86,0.00,CLR,,0.00,WeatherDisplay:10.37,2013-02-17 08:55:00,
2013-02-17 04:00:00,32.0,28.3,30.06,WNW,290,6.9,6.9,86,0.00,CLR,,0.00,WeatherDisplay:10.37,2013-02-17 09:00:00,
2013-02-17 04:05:00,32.0,28.3,30.06,WNW,290,6.9,6.9,86,0.00,CLR,,0.00,WeatherDisplay:10.37,2013-02-17 09:05:00,
2013-02-17 04:10:00,32.0,28.3,30.07,West,280,6.9,6.9,86,0.00,CLR,,0.00,WeatherDisplay:10.37,2013-02-17 09:10:00,
2013-02-17 04:15:00,32.0,28.3,30.07,West,280,6.9,6.9,86,0.00,CLR,,0.00,WeatherDisplay:10.37,2013-02-17 09:15:00,
2013-02-17 04:20:00,32.0,28.3,30.07,West,280,6.9,6.9,86,0.00,CLR,,0.00,WeatherDisplay:10.37,2013-02-17 09:20:00,
2013-02-17 04:25:00,32.0,28.3,30.07,West,280,6.9,6.9,86,0.00,CLR,,0.00,WeatherDisplay:10.37,2013-02-17 09:25:00,
2013-02-17 04:30:00,32.0,28.3,30.08,WNW,290,8.1,8.1,86,0.00,CLR,,0.00,WeatherDisplay:10.37,2013-02-17 09:30:00,
2013-02-17 04:35:00,32.0,28.3,30.08,WNW,290,8.1,8.1,86,0.00,CLR,,0.00,WeatherDisplay:10.37,2013-02-17 09:35:00,
2013-02-17 04:40:00,32.0,28.3,30.08,WNW,290,8.1,8.1,86,0.00,CLR,,0.00,WeatherDisplay:10.37,2013-02-17 09:40:00,
2013-02-17 04:45:00,32.0,28.3,30.08,WNW,290,8.1,8.1,86,0.00,CLR,,0.00,WeatherDisplay:10.37,2013-02-17 09:45:00,
2013-02-17 04:50:00,32.0,28.3,30.08,WNW,290,8.1,8.1,86,0.00,CLR,,0.00,WeatherDisplay:10.37,2013-02-17 09:50:00,
2013-02-17 04:55:00,32.0,28.3,30.08,WNW,290,8.1,8.1,86,0.00,CLR,,0.00,WeatherDisplay:10.37,2013-02-17 09:55:00,
2013-02-17 05:00:00,32.0,28.3,30.08,WNW,290,19.6,19.6,86,0.00,CLR,,0.00,WeatherDisplay:10.37,2013-02-17 10:00:00,
2013-02-17 05:05:00,32.0,28.3,30.08,WNW,290,19.6,19.6,86,0.00,CLR,,0.00,WeatherDisplay:10.37,2013-02-17 10:05:00,
2013-02-17 05:10:00,30.2,26.5,30.09,WNW,300,19.6,19.6,86,0.00,CLR,,0.00,WeatherDisplay:10.37,2013-02-17 10:10:00,
2013-02-17 05:15:00,30.2,26.5,30.09,WNW,300,8.1,8.1,86,0.00,CLR,,0.00,WeatherDisplay:10.37,2013-02-17 10:15:00,
2013-02-17 05:20:00,30.2,26.5,30.09,WNW,300,8.1,8.1,86,0.00,CLR,,0.00,WeatherDisplay:10.37,2013-02-17 10:20:00,
2013-02-17 05:25:00,30.2,26.5,30.09,WNW,300,8.1,8.1,86,0.00,CLR,,0.00,WeatherDisplay:10.37,2013-02-17 10:25:00,
2013-02-17 05:30:00,30.2,26.5,30.10,NW,310,10.4,10.4,86,0.00,CLR,,0.00,WeatherDisplay:10.37,2013-02-17 10:30:00,
2013-02-17 05:35:00,30.2,26.5,30.10,NW,310,10.4,10.4,86,0.00,CLR,,0.00,WeatherDisplay:10.37,2013-02-17 10:35:00,
2013-02-17 05:40:00,30.2,26.5,30.10,WNW,300,10.4,10.4,86,0.00,CLR,,0.00,WeatherDisplay:10.37,2013-02-17 10:40:00,
2013-02-17 05:45:00,30.2,26.5,30.10,WNW,300,9.2,9.2,86,0.00,CLR,,0.00,WeatherDisplay:10.37,2013-02-17 10:45:00,
2013-02-17 05:50:00,30.2,26.5,30.10,WNW,300,9.2,9.2,86,0.00,CLR,,0.00,WeatherDisplay:10.37,2013-02-17 10:50:00,
2013-02-17 05:55:00,30.2,26.5,30.10,WNW,300,9.2,9.2,86,0.00,CLR,,0.00,WeatherDisplay:10.37,2013-02-17 10:55:00,
2013-02-17 06:00:00,30.2,26.5,30.10,WNW,300,9.2,9.2,86,0.00,CLR,,0.00,WeatherDisplay:10.37,2013-02-17 11:00:00,
2013-02-17 06:05:00,30.2,26.5,30.10,WNW,300,9.2,9.2,86,0.00,CLR,,0.00,WeatherDisplay:10.37,2013-02-17 11:05:00,
2013-02-17 06:10:00,30.2,24.8,30.11,WNW,300,6.9,6.9,80,0.00,CLR,,0.00,WeatherDisplay:10.37,2013-02-17 11:10:00,
2013-02-17 06:15:00,30.2,24.8,30.11,WNW,300,6.9,6.9,80,0.00,CLR,,0.00,WeatherDisplay:10.37,2013-02-17 11:15:00,
2013-02-17 06:20:00,30.2,24.8,30.11,WNW,300,6.9,6.9,80,0.00,CLR,,0.00,WeatherDisplay:10.37,2013-02-17 11:20:00,
2013-02-17 06:25:00,30.2,24.8,30.11,WNW,300,6.9,6.9,80,0.00,CLR,,0.00,WeatherDisplay:10.37,2013-02-17 11:25:00,
2013-02-17 06:30:00,30.2,24.8,30.12,WNW,300,9.2,9.2,80,0.00,CLR,,0.00,WeatherDisplay:10.37,2013-02-17 11:30:00,
2013-02-17 06:35:00,30.2,24.8,30.12,WNW,300,9.2,9.2,80,0.00,CLR,,0.00,WeatherDisplay:10.37,2013-02-17 11:35:00,
2013-02-17 06:40:00,30.2,22.9,30.13,West,270,9.2,9.2,74,0.00,CLR,,0.00,WeatherDisplay:10.37,2013-02-17 11:40:00,
2013-02-17 06:45:00,30.2,22.9,30.13,West,270,6.9,6.9,74,0.00,CLR,,0.00,WeatherDisplay:10.37,2013-02-17 11:45:00,
2013-02-17 06:50:00,30.2,22.9,30.13,West,270,6.9,6.9,74,0.00,CLR,,0.00,WeatherDisplay:10.37,2013-02-17 11:50:00,
2013-02-17 06:55:00,30.2,22.9,30.13,West,270,6.9,6.9,74,0.00,CLR,,0.00,WeatherDisplay:10.37,2013-02-17 11:55:00,
2013-02-17 07:00:00,30.2,22.9,30.14,West,270,8.1,8.1,74,0.00,CLR,,0.00,WeatherDisplay:10.37,2013-02-17 12:00:00,
2013-02-17 07:05:00,30.2,22.9,30.14,West,270,8.1,8.1,74,0.00,CLR,,0.00,WeatherDisplay:10.37,2013-02-17 12:05:00,
2013-02-17 07:10:00,30.2,22.9,30.14,West,270,8.1,8.1,74,0.00,CLR,,0.00,WeatherDisplay:10.37,2013-02-17 12:10:00,
2013-02-17 07:15:00,30.2,22.9,30.14,West,270,8.1,8.1,74,0.00,CLR,,0.00,WeatherDisplay:10.37,2013-02-17 12:15:00,
2013-02-17 07:20:00,28.4,22.7,30.16,West,280,8.1,8.1,79,0.00,CLR,,0.00,WeatherDisplay:10.37,2013-02-17 12:20:00,
2013-02-17 07:25:00,28.4,22.7,30.16,West,280,6.9,6.9,79,0.00,CLR,,0.00,WeatherDisplay:10.37,2013-02-17 12:25:00,
2013-02-17 07:30:00,28.4,22.7,30.16,West,280,6.9,6.9,79,0.00,CLR,,0.00,WeatherDisplay:10.37,2013-02-17 12:30:00,
2013-02-17 07:35:00,28.4,22.7,30.16,West,280,6.9,6.9,79,0.00,CLR,,0.00,WeatherDisplay:10.37,2013-02-17 12:35:00,
2013-02-17 07:40:00,28.4,22.7,30.16,West,280,6.9,6.9,79,0.00,CLR,,0.00,WeatherDisplay:10.37,2013-02-17 12:40:00,
2013-02-17 07:45:00,28.4,22.7,30.16,West,280,6.9,6.9,79,0.00,CLR,,0.00,WeatherDisplay:10.37,2013-02-17 12:45:00,
2013-02-17 07:50:00,30.2,22.9,30.16,West,280,8.1,8.1,74,0.00,CLR,,0.00,WeatherDisplay:10.37,2013-02-17 12:50:00,
2013-02-17 07:55:00,30.2,22.9,30.16,West,280,8.1,8.1,74,0.00,CLR,,0.00,WeatherDisplay:10.37,2013-02-17 12:55:00,
2013-02-17 08:00:00,30.2,22.9,30.16,West,280,8.1,8.1,74,0.00,CLR,,0.00,WeatherDisplay:10.37,2013-02-17 13:00:00,
2013-02-17 08:05:00,30.2,22.9,30.16,West,280,8.1,8.1,74,0.00,CLR,,0.00,WeatherDisplay:10.37,2013-02-17 13:05:00,
2013-02-17 08:10:00,30.2,22.9,30.18,West,280,18.4,18.4,74,0.00,CLR,,0.00,WeatherDisplay:10.37,2013-02-17 13:10:00,
2013-02-17 08:15:00,30.2,22.9,30.18,West,280,18.4,18.4,74,0.00,CLR,,0.00,WeatherDisplay:10.37,2013-02-17 13:15:00,
2013-02-17 08:20:00,30.2,22.9,30.18,West,280,18.4,18.4,74,0.00,CLR,,0.00,WeatherDisplay:10.37,2013-02-17 13:20:00,
2013-02-17 08:25:00,30.2,22.9,30.18,West,280,18.4,18.4,74,0.00,CLR,,0.00,WeatherDisplay:10.37,2013-02-17 13:25:00,
2013-02-17 08:30:00,32.0,23.0,30.19,West,280,18.4,18.4,69,0.00,CLR,,0.00,WeatherDisplay:10.37,2013-02-17 13:30:00,
2013-02-17 08:35:00,32.0,23.0,30.19,West,280,18.4,18.4,69,0.00,CLR,,0.00,WeatherDisplay:10.37,2013-02-17 13:35:00,
2013-02-17 08:40:00,32.0,23.0,30.19,West,280,18.4,18.4,69,0.00,CLR,,0.00,WeatherDisplay:10.37,2013-02-17 13:40:00,
2013-02-17 08:45:00,32.0,23.0,30.19,West,280,18.4,18.4,69,0.00,CLR,,0.00,WeatherDisplay:10.37,2013-02-17 13:45:00,
2013-02-17 08:50:00,32.0,23.0,30.20,NW,310,19.6,19.6,69,0.00,CLR,,0.00,WeatherDisplay:10.37,2013-02-17 13:50:00,
2013-02-17 08:55:00,32.0,23.0,30.20,NW,310,19.6,19.6,69,0.00,CLR,,0.00,WeatherDisplay:10.37,2013-02-17 13:55:00,
2013-02-17 09:00:00,32.0,23.0,30.20,NW,310,19.6,19.6,69,0.00,CLR,,0.00,WeatherDisplay:10.37,2013-02-17 14:00:00,
2013-02-17 09:05:00,32.0,23.0,30.20,NW,310,19.6,19.6,69,0.00,CLR,,0.00,WeatherDisplay:10.37,2013-02-17 14:05:00,
2013-02-17 09:10:00,32.0,23.0,30.21,WNW,300,20.7,20.7,69,0.00,CLR,,0.00,WeatherDisplay:10.37,2013-02-17 14:10:00,
2013-02-17 09:15:00,32.0,23.0,30.21,WNW,300,20.7,20.7,69,0.00,CLR,,0.00,WeatherDisplay:10.37,2013-02-17 14:15:00,
2013-02-17 09:20:00,32.0,23.0,30.21,WNW,300,20.7,20.7,69,0.00,CLR,,0.00,WeatherDisplay:10.37,2013-02-17 14:20:00,
2013-02-17 09:25:00,32.0,23.0,30.21,WNW,300,20.7,20.7,69,0.00,CLR,,0.00,WeatherDisplay:10.37,2013-02-17 14:25:00,
2013-02-17 09:30:00,33.8,21.0,30.21,WNW,300,25.3,25.3,59,0.00,CLR,,0.00,WeatherDisplay:10.37,2013-02-17 14:30:00,
2013-02-17 09:35:00,33.8,21.0,30.21,WNW,300,25.3,25.3,59,0.00,CLR,,0.00,WeatherDisplay:10.37,2013-02-17 14:35:00,
2013-02-17 09:40:00,33.8,21.0,30.21,WNW,300,25.3,25.3,59,0.00,CLR,,0.00,WeatherDisplay:10.37,2013-02-17 14:40:00,
2013-02-17 09:45:00,33.8,21.0,30.21,WNW,300,25.3,25.3,59,0.00,CLR,,0.00,WeatherDisplay:10.37,2013-02-17 14:45:00,
2013-02-17 09:50:00,33.8,21.0,30.21,WNW,290,27.6,27.6,59,0.00,CLR,,0.00,WeatherDisplay:10.37,2013-02-17 14:50:00,
2013-02-17 09:55:00,33.8,21.0,30.21,WNW,290,27.6,27.6,59,0.00,CLR,,0.00,WeatherDisplay:10.37,2013-02-17 14:55:00,
2013-02-17 10:00:00,33.8,21.0,30.21,WNW,290,27.6,27.6,59,0.00,CLR,,0.00,WeatherDisplay:10.37,2013-02-17 15:00:00,
2013-02-17 10:05:00,33.8,21.0,30.21,WNW,290,27.6,27.6,59,0.00,CLR,,0.00,WeatherDisplay:10.37,2013-02-17 15:05:00,
2013-02-17 10:10:00,35.6,21.0,30.21,WNW,300,27.6,27.6,55,0.00,CLR,,0.00,WeatherDisplay:10.37,2013-02-17 15:10:00,
2013-02-17 11:33:00,35.6,21.0,30.21,WNW,300,26.5,26.5,55,0.00,CLR,,0.00,WeatherDisplay:10.37,2013-02-17 16:33:00,
2013-02-17 11:38:00,35.6,21.0,30.21,WNW,300,26.5,26.5,55,0.00,CLR,,0.00,WeatherDisplay:10.37,2013-02-17 16:38:00,
2013-02-17 11:43:00,39.2,19.1,30.21,West,280,25.3,25.3,44,0.00,CLR,,0.00,WeatherDisplay:10.37,2013-02-17 16:43:00,
2013-02-17 11:48:00,39.2,19.1,30.21,West,280,25.3,25.3,44,0.00,CLR,,0.00,WeatherDisplay:10.37,2013-02-17 16:48:00,
2013-02-17 11:53:00,39.2,19.1,30.21,West,280,25.3,25.3,44,0.00,CLR,,0.00,WeatherDisplay:10.37,2013-02-17 16:53:00,
2013-02-17 11:58:00,39.2,19.1,30.21,West,280,25.3,25.3,44,0.00,CLR,,0.00,WeatherDisplay:10.37,2013-02-17 16:58:00,
2013-02-17 12:03:00,39.2,19.1,30.21,West,280,25.3,25.3,44,0.00,CLR,,0.00,WeatherDisplay:10.37,2013-02-17 17:03:00,
2013-02-17 12:08:00,39.2,19.1,30.21,West,280,25.3,25.3,44,0.00,CLR,,0.00,WeatherDisplay:10.37,2013-02-17 17:08:00,
2013-02-17 12:13:00,39.2,19.1,30.21,West,280,25.3,25.3,44,0.00,CLR,,0.00,WeatherDisplay:10.37,2013-02-17 17:13:00,
2013-02-17 12:18:00,39.2,19.1,30.21,West,280,25.3,25.3,44,0.00,CLR,,0.00,WeatherDisplay:10.37,2013-02-17 17:18:00,
2013-02-17 12:23:00,39.2,17.4,30.21,NW,310,25.3,25.3,41,0.00,CLR,,0.00,WeatherDisplay:10.37,2013-02-17 17:23:00,
2013-02-17 12:28:00,39.2,17.4,30.21,NW,310,25.3,25.3,41,0.00,CLR,,0.00,WeatherDisplay:10.37,2013-02-17 17:28:00,
2013-02-17 12:33:00,39.2,17.4,30.21,West,280,32.2,32.2,41,0.00,CLR,,0.00,WeatherDisplay:10.37,2013-02-17 17:33:00,
2013-02-17 12:38:00,39.2,17.4,30.21,West,280,32.2,32.2,41,0.00,CLR,,0.00,WeatherDisplay:10.37,2013-02-17 17:38:00,
2013-02-17 12:43:00,39.2,17.4,30.21,West,280,32.2,32.2,41,0.00,CLR,,0.00,WeatherDisplay:10.37,2013-02-17 17:43:00,
2013-02-17 12:48:00,39.2,17.4,30.21,West,280,32.2,32.2,41,0.00,CLR,,0.00,WeatherDisplay:10.37,2013-02-17 17:48:00,
2013-02-17 12:53:00,41.0,17.3,30.20,NW,310,23.0,23.0,38,0.00,CLR,,0.00,WeatherDisplay:10.37,2013-02-17 17:53:00,
2013-02-17 12:58:00,41.0,17.3,30.20,NW,310,23.0,23.0,38,0.00,CLR,,0.00,WeatherDisplay:10.37,2013-02-17 17:58:00,
2013-02-17 13:03:00,41.0,17.3,30.20,NW,310,23.0,23.0,38,0.00,CLR,,0.00,WeatherDisplay:10.37,2013-02-17 18:03:00,
2013-02-17 13:08:00,41.0,17.3,30.20,NW,310,23.0,23.0,38,0.00,CLR,,0.00,WeatherDisplay:10.37,2013-02-17 18:08:00,
2013-02-17 13:13:00,41.0,17.3,30.20,NW,310,28.8,28.8,38,0.00,CLR,,0.00,WeatherDisplay:10.37,2013-02-17 18:13:00,
2013-02-17 13:18:00,41.0,17.3,30.20,NW,310,28.8,28.8,38,0.00,CLR,,0.00,WeatherDisplay:10.37,2013-02-17 18:18:00,
2013-02-17 13:23:00,41.0,17.3,30.20,NW,310,28.8,28.8,38,0.00,CLR,,0.00,WeatherDisplay:10.37,2013-02-17 18:23:00,
2013-02-17 13:28:00,41.0,17.3,30.20,NW,310,28.8,28.8,38,0.00,CLR,,0.00,WeatherDisplay:10.37,2013-02-17 18:28:00,
2013-02-17 13:33:00,42.8,15.6,30.20,WNW,300,32.2,32.2,33,0.00,CLR,,0.00,WeatherDisplay:10.37,2013-02-17 18:33:00,
2013-02-17 13:38:00,42.8,15.6,30.20,WNW,300,32.2,32.2,33,0.00,CLR,,0.00,WeatherDisplay:10.37,2013-02-17 18:38:00,
2013-02-17 13:43:00,42.8,15.6,30.20,WNW,300,32.2,32.2,33,0.00,CLR,,0.00,WeatherDisplay:10.37,2013-02-17 18:43:00,
2013-02-17 13:48:00,42.8,15.6,30.20,WNW,300,32.2,32.2,33,0.00,CLR,,0.00,WeatherDisplay:10.37,2013-02-17 18:48:00,
2013-02-17 13:53:00,42.8,15.6,30.20,WNW,300,32.2,32.2,33,0.00,CLR,,0.00,WeatherDisplay:10.37,2013-02-17 18:53:00,
2013-02-17 13:58:00,42.8,15.6,30.20,WNW,300,32.2,32.2,33,0.00,CLR,,0.00,WeatherDisplay:10.37,2013-02-17 18:58:00,
2013-02-17 14:03:00,42.8,15.6,30.20,WNW,300,32.2,32.2,33,0.00,CLR,,0.00,WeatherDisplay:10.37,2013-02-17 19:03:00,
2013-02-17 14:08:00,42.8,15.6,30.20,WNW,300,32.2,32.2,33,0.00,CLR,,0.00,WeatherDisplay:10.37,2013-02-17 19:08:00,
2013-02-17 14:13:00,42.8,15.6,30.18,WNW,290,35.7,35.7,33,0.00,CLR,,0.00,WeatherDisplay:10.37,2013-02-17 19:13:00,
2013-02-17 14:18:00,42.8,15.6,30.18,WNW,290,35.7,35.7,33,0.00,CLR,,0.00,WeatherDisplay:10.37,2013-02-17 19:18:00,
2013-02-17 14:23:00,42.8,15.6,30.18,WNW,290,35.7,35.7,33,0.00,CLR,,0.00,WeatherDisplay:10.37,2013-02-17 19:23:00,
2013-02-17 14:28:00,42.8,15.6,30.18,WNW,290,35.7,35.7,33,0.00,CLR,,0.00,WeatherDisplay:10.37,2013-02-17 19:28:00,
2013-02-17 14:33:00,42.8,15.6,30.18,WNW,290,35.7,35.7,33,0.00,CLR,,0.00,WeatherDisplay:10.37,2013-02-17 19:33:00,
2013-02-17 14:38:00,42.8,15.6,30.18,WNW,290,35.7,35.7,33,0.00,CLR,,0.00,WeatherDisplay:10.37,2013-02-17 19:38:00,
2013-02-17 14:43:00,42.8,13.5,30.18,NW,310,34.5,34.5,30,0.00,CLR,,0.00,WeatherDisplay:10.37,2013-02-17 19:43:00,
2013-02-17 14:48:00,42.8,13.5,30.18,NW,310,34.5,34.5,30,0.00,CLR,,0.00,WeatherDisplay:10.37,2013-02-17 19:48:00,
2013-02-17 14:53:00,42.8,13.5,30.18,NW,310,34.5,34.5,30,0.00,CLR,,0.00,WeatherDisplay:10.37,2013-02-17 19:53:00,
2013-02-17 14:58:00,42.8,13.5,30.18,NW,310,34.5,34.5,30,0.00,CLR,,0.00,WeatherDisplay:10.37,2013-02-17 19:58:00,
2013-02-17 15:03:00,42.8,17.0,30.19,WNW,290,26.5,26.5,35,0.00,CLR,,0.00,WeatherDisplay:10.37,2013-02-17 20:03:00,
2013-02-17 15:08:00,42.8,17.0,30.19,WNW,290,26.5,26.5,35,0.00,CLR,,0.00,WeatherDisplay:10.37,2013-02-17 20:08:00,
2013-02-17 15:13:00,42.8,17.0,30.19,WNW,290,26.5,26.5,35,0.00,CLR,,0.00,WeatherDisplay:10.37,2013-02-17 20:13:00,
2013-02-17 15:18:00,42.8,17.0,30.19,WNW,290,26.5,26.5,35,0.00,CLR,,0.00,WeatherDisplay:10.37,2013-02-17 20:18:00,
2013-02-17 15:23:00,44.6,15.0,30.19,NW,310,28.8,28.8,30,0.00,CLR,,0.00,WeatherDisplay:10.37,2013-02-17 20:23:00,
2013-02-17 15:28:00,44.6,15.0,30.19,NW,310,28.8,28.8,30,0.00,CLR,,0.00,WeatherDisplay:10.37,2013-02-17 20:28:00,
2013-02-17 15:33:00,44.6,15.0,30.19,NW,310,28.8,28.8,30,0.00,CLR,,0.00,WeatherDisplay:10.37,2013-02-17 20:33:00,
2013-02-17 15:38:00,44.6,15.0,30.19,NW,310,28.8,28.8,30,0.00,CLR,,0.00,WeatherDisplay:10.37,2013-02-17 20:38:00,
2013-02-17 15:43:00,44.6,15.0,30.19,NW,320,25.3,25.3,30,0.00,CLR,,0.00,WeatherDisplay:10.37,2013-02-17 20:43:00,
2013-02-17 15:48:00,44.6,15.0,30.19,NW,320,25.3,25.3,30,0.00,CLR,,0.00,WeatherDisplay:10.37,2013-02-17 20:48:00,
2013-02-17 15:53:00,44.6,15.0,30.19,NW,320,25.3,25.3,30,0.00,CLR,,0.00,WeatherDisplay:10.37,2013-02-17 20:53:00,
2013-02-17 15:58:00,44.6,15.0,30.19,NW,320,25.3,25.3,30,0.00,CLR,,0.00,WeatherDisplay:10.37,2013-02-17 20:58:00,
2013-02-17 16:03:00,44.6,15.0,30.19,NW,320,25.3,25.3,30,0.00,CLR,,0.00,WeatherDisplay:10.37,2013-02-17 21:03:00,
2013-02-17 16:08:00,44.6,15.0,30.19,NW,320,25.3,25.3,30,0.00,CLR,,0.00,WeatherDisplay:10.37,2013-02-17 21:08:00,
2013-02-17 16:13:00,44.6,15.0,30.19,NW,320,25.3,25.3,30,0.00,CLR,,0.00,WeatherDisplay:10.37,2013-02-17 21:13:00,
2013-02-17 16:18:00,44.6,15.0,30.19,NW,320,25.3,25.3,30,0.00,CLR,,0.00,WeatherDisplay:10.37,2013-02-17 21:18:00,
2013-02-17 16:23:00,44.6,17.2,30.19,NW,320,24.2,24.2,33,0.00,CLR,,0.00,WeatherDisplay:10.37,2013-02-17 21:23:00,
2013-02-17 16:28:00,44.6,17.2,30.19,NW,320,24.2,24.2,33,0.00,CLR,,0.00,WeatherDisplay:10.37,2013-02-17 21:28:00,
2013-02-17 16:33:00,44.6,17.2,30.19,NW,320,24.2,24.2,33,0.00,CLR,,0.00,WeatherDisplay:10.37,2013-02-17 21:33:00,
2013-02-17 16:38:00,44.6,17.2,30.19,NW,320,24.2,24.2,33,0.00,CLR,,0.00,WeatherDisplay:10.37,2013-02-17 21:38:00,
2013-02-17 16:43:00,42.8,17.0,30.20,NW,320,12.7,12.7,35,0.00,CLR,,0.00,WeatherDisplay:10.37,2013-02-17 21:43:00,
2013-02-17 16:48:00,42.8,17.0,30.20,NW,320,12.7,12.7,35,0.00,CLR,,0.00,WeatherDisplay:10.37,2013-02-17 21:48:00,
2013-02-17 16:53:00,42.8,17.0,30.20,NW,320,12.7,12.7,35,0.00,CLR,,0.00,WeatherDisplay:10.37,2013-02-17 21:53:00,
2013-02-17 16:58:00,42.8,17.0,30.20,NW,320,12.7,12.7,35,0.00,CLR,,0.00,WeatherDisplay:10.37,2013-02-17 21:58:00,
2013-02-17 17:03:00,42.8,18.9,30.20,NW,310,4.6,4.6,38,0.00,CLR,,0.00,WeatherDisplay:10.37,2013-02-17 22:03:00,
2013-02-17 17:08:00,42.8,18.9,30.20,NW,310,4.6,4.6,38,0.00,CLR,,0.00,WeatherDisplay:10.37,2013-02-17 22:08:00,
2013-02-17 17:13:00,42.8,18.9,30.20,NW,310,4.6,4.6,38,0.00,CLR,,0.00,WeatherDisplay:10.37,2013-02-17 22:13:00,
2013-02-17 17:18:00,42.8,18.9,30.20,NW,310,4.6,4.6,38,0.00,CLR,,0.00,WeatherDisplay:10.37,2013-02-17 22:18:00,
2013-02-17 17:23:00,42.8,18.9,30.21,NNW,340,6.9,6.9,38,0.00,CLR,,0.00,WeatherDisplay:10.37,2013-02-17 22:23:00,
2013-02-17 17:28:00,42.8,18.9,30.21,NNW,340,6.9,6.9,38,0.00,CLR,,0.00,WeatherDisplay:10.37,2013-02-17 22:28:00,
2013-02-17 17:33:00,42.8,18.9,30.21,NNW,340,6.9,6.9,38,0.00,CLR,,0.00,WeatherDisplay:10.37,2013-02-17 22:33:00,
2013-02-17 17:38:00,42.8,18.9,30.21,NNW,340,6.9,6.9,38,0.00,CLR,,0.00,WeatherDisplay:10.37,2013-02-17 22:38:00,
2013-02-17 17:43:00,42.8,18.9,30.21,NNW,340,6.9,6.9,38,0.00,CLR,,0.00,WeatherDisplay:10.37,2013-02-17 22:43:00,
2013-02-17 17:48:00,42.8,18.9,30.21,NNW,340,6.9,6.9,38,0.00,CLR,,0.00,WeatherDisplay:10.37,2013-02-17 22:48:00,
2013-02-17 17:53:00,41.0,19.1,30.22,NNW,330,3.5,3.5,41,0.00,CLR,,0.00,WeatherDisplay:10.37,2013-02-17 22:53:00,
2013-02-17 17:58:00,41.0,19.1,30.22,NNW,330,3.5,3.5,41,0.00,CLR,,0.00,WeatherDisplay:10.37,2013-02-17 22:58:00,
2013-02-17 18:03:00,41.0,19.1,30.22,NNW,330,3.5,3.5,41,0.00,CLR,,0.00,WeatherDisplay:10.37,2013-02-17 23:03:00,
2013-02-17 18:08:00,41.0,19.1,30.22,NNW,330,3.5,3.5,41,0.00,CLR,,0.00,WeatherDisplay:10.37,2013-02-17 23:08:00,
2013-02-17 18:13:00,39.2,21.1,30.23,NNW,340,4.6,4.6,48,0.00,CLR,,0.00,WeatherDisplay:10.37,2013-02-17 23:13:00,
2013-02-17 18:18:00,39.2,21.1,30.23,NNW,340,4.6,4.6,48,0.00,CLR,,0.00,WeatherDisplay:10.37,2013-02-17 23:18:00,
2013-02-17 18:23:00,39.2,21.1,30.23,NNW,340,4.6,4.6,48,0.00,CLR,,0.00,WeatherDisplay:10.37,2013-02-17 23:23:00,
2013-02-17 18:28:00,39.2,21.1,30.23,NNW,340,4.6,4.6,48,0.00,CLR,,0.00,WeatherDisplay:10.37,2013-02-17 23:28:00,
2013-02-17 18:33:00,37.4,20.9,30.24,NNW,340,0.0,0.0,51,0.00,CLR,,0.00,WeatherDisplay:10.37,2013-02-17 23:33:00,
2013-02-17 18:38:00,37.4,20.9,30.24,NNW,340,0.0,0.0,51,0.00,CLR,,0.00,WeatherDisplay:10.37,2013-02-17 23:38:00,
2013-02-17 18:43:00,37.4,20.9,30.24,NNW,340,0.0,0.0,51,0.00,CLR,,0.00,WeatherDisplay:10.37,2013-02-17 23:43:00,
2013-02-17 18:48:00,37.4,20.9,30.24,NNW,340,0.0,0.0,51,0.00,CLR,,0.00,WeatherDisplay:10.37,2013-02-17 23:48:00,
2013-02-17 18:53:00,33.8,26.4,30.25,NNW,340,0.0,0.0,74,0.00,CLR,,0.00,WeatherDisplay:10.37,2013-02-17 23:53:00,
2013-02-17 18:58:00,33.8,26.4,30.25,NNW,340,0.0,0.0,74,0.00,CLR,,0.00,WeatherDisplay:10.37,2013-02-17 23:58:00,
2013-02-17 19:03:00,33.8,24.7,30.25,NNW,340,0.0,0.0,69,0.00,CLR,,0.00,WeatherDisplay:10.37,2013-02-18 00:03:00,
2013-02-17 19:08:00,33.8,24.7,30.25,NNW,340,0.0,0.0,69,0.00,CLR,,0.00,WeatherDisplay:10.37,2013-02-18 00:08:00,
2013-02-17 19:13:00,33.8,24.7,30.25,NNW,340,0.0,0.0,69,0.00,CLR,,0.00,WeatherDisplay:10.37,2013-02-18 00:13:00,
2013-02-17 19:18:00,33.8,24.7,30.25,NNW,340,0.0,0.0,69,0.00,CLR,,0.00,WeatherDisplay:10.37,2013-02-18 00:18:00,
2013-02-17 19:23:00,30.2,26.5,30.26,NNW,340,0.0,0.0,86,0.00,CLR,,0.00,WeatherDisplay:10.37,2013-02-18 00:23:00,
2013-02-17 19:28:00,30.2,26.5,30.26,NNW,340,0.0,0.0,86,0.00,CLR,,0.00,WeatherDisplay:10.37,2013-02-18 00:28:00,
2013-02-17 19:33:00,30.2,26.5,30.26,NNW,340,0.0,0.0,86,0.00,CLR,,0.00,WeatherDisplay:10.37,2013-02-18 00:33:00,
2013-02-17 19:38:00,30.2,26.5,30.26,NNW,340,0.0,0.0,86,0.00,CLR,,0.00,WeatherDisplay:10.37,2013-02-18 00:38:00,
2013-02-17 19:43:00,30.2,26.5,30.27,NNW,340,0.0,0.0,86,0.00,CLR,,0.00,WeatherDisplay:10.37,2013-02-18 00:43:00,
2013-02-17 19:48:00,30.2,26.5,30.27,NNW,340,0.0,0.0,86,0.00,CLR,,0.00,WeatherDisplay:10.37,2013-02-18 00:48:00,
2013-02-17 19:53:00,30.2,26.5,30.27,NNW,340,0.0,0.0,86,0.00,CLR,,0.00,WeatherDisplay:10.37,2013-02-18 00:53:00,
2013-02-17 19:58:00,30.2,26.5,30.27,NNW,340,0.0,0.0,86,0.00,CLR,,0.00,WeatherDisplay:10.37,2013-02-18 00:58:00,
2013-02-17 20:03:00,28.4,26.4,30.28,NNW,340,0.0,0.0,92,0.00,CLR,,0.00,WeatherDisplay:10.37,2013-02-18 01:03:00,
2013-02-17 20:08:00,28.4,26.4,30.28,NNW,340,0.0,0.0,92,0.00,CLR,,0.00,WeatherDisplay:10.37,2013-02-18 01:08:00,
2013-02-17 20:13:00,28.4,26.4,30.28,NNW,340,0.0,0.0,92,0.00,CLR,,0.00,WeatherDisplay:10.37,2013-02-18 01:13:00,
2013-02-17 20:18:00,28.4,26.4,30.28,NNW,340,0.0,0.0,92,0.00,CLR,,0.00,WeatherDisplay:10.37,2013-02-18 01:18:00,
2013-02-17 20:23:00,28.4,26.4,30.28,NNW,340,0.0,0.0,92,0.00,CLR,,0.00,WeatherDisplay:10.37,2013-02-18 01:23:00,
2013-02-17 20:28:00,28.4,26.4,30.28,NNW,340,0.0,0.0,92,0.00,CLR,,0.00,WeatherDisplay:10.37,2013-02-18 01:28:00,
2013-02-17 20:33:00,28.4,26.4,30.28,NNW,340,0.0,0.0,92,0.00,CLR,,0.00,WeatherDisplay:10.37,2013-02-18 01:33:00,
2013-02-17 20:38:00,28.4,26.4,30.28,NNW,340,0.0,0.0,92,0.00,CLR,,0.00,WeatherDisplay:10.37,2013-02-18 01:38:00,
2013-02-17 20:43:00,30.2,26.5,30.29,NNW,340,0.0,0.0,86,0.00,CLR,,0.00,WeatherDisplay:10.37,2013-02-18 01:43:00,
2013-02-17 20:48:00,30.2,26.5,30.29,NNW,340,0.0,0.0,86,0.00,CLR,,0.00,WeatherDisplay:10.37,2013-02-18 01:48:00,
2013-02-17 20:53:00,30.2,26.5,30.29,NNW,340,0.0,0.0,86,0.00,CLR,,0.00,WeatherDisplay:10.37,2013-02-18 01:53:00,
2013-02-17 20:58:00,30.2,26.5,30.29,NNW,340,0.0,0.0,86,0.00,CLR,,0.00,WeatherDisplay:10.37,2013-02-18 01:58:00,
2013-02-17 21:03:00,30.2,26.5,30.29,NNW,340,0.0,0.0,86,0.00,CLR,,0.00,WeatherDisplay:10.37,2013-02-18 02:03:00,
2013-02-17 21:08:00,30.2,26.5,30.29,NNW,340,0.0,0.0,86,0.00,CLR,,0.00,WeatherDisplay:10.37,2013-02-18 02:08:00,
2013-02-17 21:13:00,30.2,26.5,30.30,NNW,340,0.0,0.0,86,0.00,CLR,,0.00,WeatherDisplay:10.37,2013-02-18 02:13:00,
2013-02-17 21:18:00,30.2,26.5,30.30,NNW,340,0.0,0.0,86,0.00,CLR,,0.00,WeatherDisplay:10.37,2013-02-18 02:18:00,
2013-02-17 21:23:00,30.2,26.5,30.30,NNW,340,0.0,0.0,86,0.00,CLR,,0.00,WeatherDisplay:10.37,2013-02-18 02:23:00,
2013-02-17 21:28:00,30.2,26.5,30.30,NNW,340,0.0,0.0,86,0.00,CLR,,0.00,WeatherDisplay:10.37,2013-02-18 02:28:00,
2013-02-17 21:33:00,28.4,26.4,30.31,NNW,340,0.0,0.0,92,0.00,CLR,,0.00,WeatherDisplay:10.37,2013-02-18 02:33:00,
2013-02-17 21:38:00,28.4,26.4,30.31,NNW,340,0.0,0.0,92,0.00,CLR,,0.00,WeatherDisplay:10.37,2013-02-18 02:38:00,
2013-02-17 21:43:00,28.4,26.4,30.31,NNW,340,0.0,0.0,92,0.00,CLR,,0.00,WeatherDisplay:10.37,2013-02-18 02:43:00,
2013-02-17 21:48:00,28.4,26.4,30.31,NNW,340,0.0,0.0,92,0.00,CLR,,0.00,WeatherDisplay:10.37,2013-02-18 02:48:00,
2013-02-17 21:53:00,28.4,26.4,30.31,NNW,340,0.0,0.0,92,0.00,CLR,,0.00,WeatherDisplay:10.37,2013-02-18 02:53:00,
2013-02-17 21:58:00,28.4,26.4,30.31,NNW,340,0.0,0.0,92,0.00,CLR,,0.00,WeatherDisplay:10.37,2013-02-18 02:58:00,
2013-02-17 22:03:00,28.4,26.4,30.31,NNW,340,0.0,0.0,92,0.00,CLR,,0.00,WeatherDisplay:10.37,2013-02-18 03:03:00,
2013-02-17 22:08:00,28.4,26.4,30.31,NNW,340,0.0,0.0,92,0.00,CLR,,0.00,WeatherDisplay:10.37,2013-02-18 03:08:00,
2013-02-17 22:13:00,26.6,24.6,30.31,NNW,340,0.0,0.0,92,0.00,CLR,,0.00,WeatherDisplay:10.37,2013-02-18 03:13:00,
2013-02-17 22:18:00,26.6,24.6,30.31,NNW,340,0.0,0.0,92,0.00,CLR,,0.00,WeatherDisplay:10.37,2013-02-18 03:18:00,
2013-02-17 22:23:00,26.6,26.6,30.31,NNW,340,0.0,0.0,100,0.00,CLR,,0.00,WeatherDisplay:10.37,2013-02-18 03:23:00,
2013-02-17 22:28:00,26.6,26.6,30.31,NNW,340,0.0,0.0,100,0.00,CLR,,0.00,WeatherDisplay:10.37,2013-02-18 03:28:00,
2013-02-17 22:33:00,26.6,26.6,30.31,NNW,340,0.0,0.0,100,0.00,CLR,,0.00,WeatherDisplay:10.37,2013-02-18 03:33:00,
2013-02-17 22:38:00,26.6,26.6,30.31,NNW,340,0.0,0.0,100,0.00,CLR,,0.00,WeatherDisplay:10.37,2013-02-18 03:38:00,
2013-02-17 22:43:00,26.6,26.6,30.31,NNW,340,0.0,0.0,100,0.00,CLR,,0.00,WeatherDisplay:10.37,2013-02-18 03:43:00,
2013-02-17 22:48:00,26.6,26.6,30.31,NNW,340,0.0,0.0,100,0.00,CLR,,0.00,WeatherDisplay:10.37,2013-02-18 03:48:00,
2013-02-17 22:53:00,28.4,26.4,30.31,NNW,340,0.0,0.0,92,0.00,CLR,,0.00,WeatherDisplay:10.37,2013-02-18 03:53:00,
2013-02-17 22:58:00,28.4,26.4,30.31,NNW,340,0.0,0.0,92,0.00,CLR,,0.00,WeatherDisplay:10.37,2013-02-18 03:58:00,
2013-02-17 23:03:00,26.6,24.6,30.32,NNW,340,0.0,0.0,92,0.00,CLR,,0.00,WeatherDisplay:10.37,2013-02-18 04:03:00,
2013-02-17 23:08:00,26.6,24.6,30.32,NNW,340,0.0,0.0,92,0.00,CLR,,0.00,WeatherDisplay:10.37,2013-02-18 04:08:00,
2013-02-17 23:13:00,26.6,24.6,30.32,NNW,340,0.0,0.0,92,0.00,CLR,,0.00,WeatherDisplay:10.37,2013-02-18 04:13:00,
2013-02-17 23:18:00,26.6,24.6,30.32,NNW,340,0.0,0.0,92,0.00,CLR,,0.00,WeatherDisplay:10.37,2013-02-18 04:18:00,
2013-02-17 23:23:00,28.4,26.4,30.32,NNW,340,0.0,0.0,92,0.00,CLR,,0.00,WeatherDisplay:10.37,2013-02-18 04:23:00,
2013-02-17 23:28:00,28.4,26.4,30.32,NNW,340,0.0,0.0,92,0.00,CLR,,0.00,WeatherDisplay:10.37,2013-02-18 04:28:00,
2013-02-17 23:33:00,28.4,26.4,30.32,NNW,340,0.0,0.0,92,0.00,CLR,,0.00,WeatherDisplay:10.37,2013-02-18 04:33:00,
2013-02-17 23:38:00,28.4,26.4,30.32,NNW,340,0.0,0.0,92,0.00,CLR,,0.00,WeatherDisplay:10.37,2013-02-18 04:38:00,
2013-02-17 23:43:00,26.6,26.6,30.32,WSW,250,3.5,3.5,100,0.00,CLR,,0.00,WeatherDisplay:10.37,2013-02-18 04:43:00,
2013-02-17 23:48:00,26.6,26.6,30.32,WSW,250,3.0,3.0,100,0.00,CLR,,0.00,WeatherDisplay:10.37,2013-02-18 04:48:00,
2013-02-17 23:53:00,26.6,26.6,30.32,WSW,250,3.5,3.5,100,0.00,CLR,,0.00,WeatherDisplay:10.37,2013-02-18 04:53:00,
2013-02-17 23:58:00,26.6,26.6,30.32,WSW,250,3.0,3.0,100,0.00,CLR,,0.00,WeatherDisplay:10.37,2013-02-18 04:58:00,